Date String (YYYY-MM-DD hh:mm:ss) UTC,Instrument flags,Ambient pressure (hPa),Sample flow (lpm),Bypass flow (lpm),Sample temperature (°C),Ambient temperature (°C),ASC tube jacket temperature (°C),LED temperature (°C),Box temperature (°C),Sample RH (%),Span deviation,Mass concentration (μg/m³),Mass concentration (μg/m³),Mass concentration (μg/m³)
DateTimeUTC,F1_M11,P_M11,Q1_M11,Q2_M11,T1_M11,T2_M11,T3_M11,T4_M11,T5_M11,U1_M11,ZSPAN_M11,X0_M11,X2_M11,X1_M11
2022-02-11 16:00:00,,0827.1,5.00,0.00,21.1,20.4,00.0,30.2,22.7,14.7,0000.0,0002.22,0001.47,0001.17
2022-02-11 16:01:00,,0827.1,5.01,0.00,21.1,20.3,00.0,30.2,22.6,14.6,0000.0,0003.49,0001.47,0001.15
2022-02-11 16:02:00,,0827.1,4.98,0.00,21.0,20.4,00.0,30.2,22.6,14.7,0000.0,0003.61,0001.46,0001.14
2022-02-11 16:03:00,,0827.1,5.02,0.00,21.0,20.4,00.0,30.2,22.6,14.8,0000.0,0003.56,0001.43,0001.12
2022-02-11 16:04:00,,0827.1,5.00,0.00,21.0,20.3,00.0,30.2,22.6,14.8,0000.0,0003.55,0001.42,0001.10
2022-02-11 16:05:00,,0827.2,5.00,0.00,21.0,20.6,00.0,30.2,22.7,14.8,0000.0,0003.87,0001.35,0001.06
2022-02-11 16:06:00,,0827.3,5.01,0.00,21.2,21.6,00.0,30.2,23.1,14.6,0000.0,0004.40,0001.33,0001.04
2022-02-11 16:07:00,,0827.6,5.00,0.00,21.4,22.6,00.0,30.3,23.4,14.5,0000.0,0004.42,0001.32,0001.03
2022-02-11 16:08:00,,0827.7,4.99,0.00,21.5,22.6,00.0,30.3,23.5,14.4,0000.0,0004.40,0001.31,0001.02
2022-02-11 16:09:00,,0827.8,5.01,0.00,21.5,22.1,00.0,30.3,23.4,14.4,0000.0,0004.33,0001.31,0001.01
2022-02-11 16:10:00,,0827.3,5.00,0.00,21.5,21.8,00.0,30.3,23.3,14.5,0000.0,0004.41,0001.32,0001.00
2022-02-11 16:11:00,,0827.3,4.99,0.00,21.5,21.6,00.0,30.4,23.2,14.4,0000.0,0005.21,0001.34,0000.99
2022-02-11 16:12:00,,0827.4,5.01,0.00,21.5,21.4,00.0,30.4,23.1,14.4,0000.0,0005.11,0001.32,0000.98
2022-02-11 16:13:00,,0827.4,5.00,0.00,21.4,21.2,00.0,30.4,23.1,14.4,0000.0,0004.51,0001.28,0000.97
2022-02-11 16:14:00,,0827.4,4.99,0.00,21.4,21.0,00.0,30.4,23.1,14.3,0000.0,0005.02,0001.27,0000.97
2022-02-11 16:15:00,,0827.4,5.00,0.00,21.4,20.9,00.0,30.4,23.0,14.3,0000.0,0005.25,0001.27,0000.98
2022-02-11 16:16:00,,0827.4,4.99,0.00,21.3,20.8,00.0,30.4,23.0,14.5,0000.0,0005.20,0001.29,0000.98
2022-02-11 16:17:00,,0827.4,4.99,0.00,21.3,20.8,00.0,30.4,23.0,14.5,0000.0,0004.59,0001.29,0000.97
2022-02-11 16:18:00,,0827.4,5.00,0.00,21.3,20.8,00.0,30.3,22.9,14.5,0000.0,0004.50,0001.27,0000.98
2022-02-11 16:19:00,,0827.4,5.00,0.00,21.3,20.7,00.0,30.3,23.0,14.5,0000.0,0004.57,0001.27,0000.98
2022-02-11 16:20:00,,0827.4,5.00,0.00,21.3,20.7,00.0,30.3,22.9,14.5,0000.0,0004.77,0001.30,0000.98
2022-02-11 16:21:00,,0827.4,4.99,0.00,21.3,20.7,00.0,30.3,22.9,14.5,0000.0,0004.77,0001.28,0000.98
2022-02-11 16:22:00,,0827.4,5.01,0.00,21.2,20.6,00.0,30.3,22.9,14.5,0000.0,0003.96,0001.23,0000.99
2022-02-11 16:23:00,,0827.4,4.99,0.00,21.2,20.6,00.0,30.3,22.9,14.5,0000.0,0003.06,0001.24,0000.99
2022-02-11 16:24:00,,0827.4,4.99,0.00,21.2,20.6,00.0,30.3,22.8,14.5,0000.0,0003.13,0001.27,0000.99
2022-02-11 16:25:00,,0827.4,5.01,0.00,21.2,20.5,00.0,30.3,22.8,14.6,0000.0,0003.06,0001.27,0000.98
2022-02-11 16:26:00,,0827.4,4.99,0.00,21.2,20.5,00.0,30.3,22.8,14.7,0000.0,0002.84,0001.26,0000.97
2022-02-11 16:27:00,,0827.5,5.01,0.00,21.1,20.4,00.0,30.2,22.8,14.7,0000.0,0003.30,0001.25,0000.96
2022-02-11 16:28:00,,0827.5,4.99,0.00,21.1,20.3,00.0,30.2,22.7,14.7,0000.0,0003.45,0001.26,0000.97
2022-02-11 16:29:00,,0827.5,5.01,0.00,21.1,20.3,00.0,30.2,22.6,14.5,0000.0,0003.50,0001.26,0000.96
2022-02-11 16:30:00,,0827.4,4.99,0.00,21.0,20.3,00.0,30.2,22.6,14.5,0000.0,0003.53,0001.28,0000.96
2022-02-11 16:31:00,,0827.4,5.01,0.00,21.0,20.5,00.0,30.2,22.7,14.5,0000.0,0003.45,0001.28,0000.97
2022-02-11 16:32:00,,0827.4,5.01,0.00,21.2,21.5,00.0,30.2,23.0,14.5,0000.0,0003.41,0001.30,0000.97
2022-02-11 16:33:00,,0827.4,5.01,0.00,21.4,22.4,00.0,30.3,23.4,14.2,0000.0,0003.48,0001.33,0000.97
2022-02-11 16:34:00,,0827.6,5.00,0.00,21.5,22.7,00.0,30.3,23.6,14.1,0000.0,0003.47,0001.33,0000.98
2022-02-11 16:35:00,,0827.5,4.99,0.00,21.6,22.4,00.0,30.3,23.6,14.2,0000.0,0003.47,0001.33,0000.98
2022-02-11 16:36:00,,0827.6,5.00,0.00,21.6,22.0,00.0,30.4,23.5,14.1,0000.0,0003.35,0001.33,0000.99
2022-02-11 16:37:00,,0827.5,4.99,0.00,21.6,21.8,00.0,30.4,23.3,14.1,0000.0,0003.23,0001.37,0001.00
2022-02-11 16:38:00,,0827.5,5.01,0.00,21.5,21.6,00.0,30.4,23.2,14.1,0000.0,0002.68,0001.39,0001.00
2022-02-11 16:39:00,,0827.5,5.00,0.00,21.5,21.3,00.0,30.4,23.2,14.2,0000.0,0002.30,0001.39,0001.00
2022-02-11 16:40:00,,0827.5,4.99,0.00,21.5,21.1,00.0,30.4,23.1,14.2,0000.0,0002.10,0001.36,0000.99
2022-02-11 16:41:00,,0827.6,5.00,0.00,21.4,21.0,00.0,30.4,23.1,14.4,0000.0,0002.09,0001.36,0000.99
2022-02-11 16:42:00,,0827.5,5.01,0.00,21.4,20.9,00.0,30.4,23.0,14.3,0000.0,0001.98,0001.32,0000.99
2022-02-11 16:43:00,,0827.6,5.00,0.00,21.3,20.8,00.0,30.4,22.9,14.2,0000.0,0002.06,0001.32,0000.99
2022-02-11 16:44:00,,0827.7,5.00,0.00,21.3,20.6,00.0,30.4,22.8,14.2,0000.0,0002.26,0001.32,0000.99
2022-02-11 16:45:00,,0827.7,4.99,0.00,21.2,20.5,00.0,30.4,22.8,14.3,0000.0,0003.70,0001.35,0000.99
2022-02-11 16:46:00,,0827.7,5.02,0.00,21.2,20.5,00.0,30.3,22.7,14.3,0000.0,0003.66,0001.32,0000.98
2022-02-11 16:47:00,,0827.7,5.00,0.00,21.2,20.5,00.0,30.3,22.7,14.4,0000.0,0003.98,0001.34,0000.98
2022-02-11 16:48:00,,0827.7,4.99,0.00,21.2,20.5,00.0,30.3,22.8,14.3,0000.0,0004.74,0001.34,0000.99
2022-02-11 16:49:00,,0827.7,5.01,0.00,21.2,20.5,00.0,30.3,22.8,14.3,0000.0,0005.21,0001.34,0000.99
2022-02-11 16:50:00,,0827.7,4.99,0.00,21.2,20.6,00.0,30.3,22.9,14.4,0000.0,0006.43,0001.35,0001.00
2022-02-11 16:51:00,,0827.7,4.99,0.00,21.2,20.6,00.0,30.3,22.9,14.3,0000.0,0006.47,0001.37,0001.00
2022-02-11 16:52:00,,0827.6,5.01,0.00,21.2,20.6,00.0,30.3,22.8,14.3,0000.0,0006.44,0001.36,0001.00
2022-02-11 16:53:00,,0827.6,4.99,0.00,21.2,20.6,00.0,30.3,22.9,14.3,0000.0,0006.43,0001.35,0000.99
2022-02-11 16:54:00,,0827.5,5.01,0.00,21.2,20.6,00.0,30.2,22.9,14.4,0000.0,0006.36,0001.33,0000.98
2022-02-11 16:55:00,,0827.6,5.01,0.00,21.2,20.6,00.0,30.2,22.8,14.4,0000.0,0006.04,0001.28,0000.97
2022-02-11 16:56:00,,0827.6,5.00,0.00,21.2,20.5,00.0,30.2,22.8,14.3,0000.0,0004.72,0001.26,0000.97
2022-02-11 16:57:00,,0827.6,5.00,0.00,21.1,20.5,00.0,30.2,22.7,14.4,0000.0,0006.07,0001.25,0000.97
2022-02-11 16:58:00,,0827.7,5.00,0.00,21.2,20.9,00.0,30.2,22.9,14.5,0000.0,0006.32,0001.24,0000.98
2022-02-11 16:59:00,,0827.6,5.00,0.00,21.3,21.9,00.0,30.3,23.3,14.3,0000.0,0005.50,0001.19,0000.97
